Location: Chuathbaluk
(61.5726°N, 159.2454°W)
Time: 04:26:18
(UTC+00:00)

Transit 2A - Pass Details

Date: 05 December 2020
Orbit: 599 x 960 km, 66.7° (Epoch: 26 January)

Event Time Altitude Azimuth Distance (km) Brightness Sun altitude
Rises 08:57:25 0° 301° (WNW) 3,446 10.0 -47.9°
Enters shadow 08:59:18 - 302° (WNW) 2,726 9.3 -48.0°
Reaches altitude 10° 09:00:01 10° 303° (WNW) 2,453 - -48.1°
Maximum altitude 09:05:40 76° 29° (NNE) 801 - -48.4°
Drops below altitude 10° 09:10:42 10° 116° (ESE) 2,199 - -48.7°
Sets 09:12:56 0° 118° (ESE) 3,064 - -48.8°
